Time,TemperatureF,DewpointF,PressureIn,WindDirection,WindDirectionDegrees,WindSpeedMPH,WindSpeedGustMPH,Humidity,HourlyPrecipIn,Conditions,Clouds,dailyrainin,SoftwareType,DateUTC
2013-02-17 00:00:00,22.5,8.4,29.81,West,277,2.0,5.0,54,0.00,,,0.00,WeatherCatV1.00B22,2013-02-17 05:00:00,
2013-02-17 00:05:00,22.4,8.7,29.81,West,272,0.0,4.0,55,0.00,,,0.00,WeatherCatV1.00B22,2013-02-17 05:05:00,
2013-02-17 00:10:00,22.3,7.8,29.81,West,264,3.0,4.0,53,0.00,,,0.00,WeatherCatV1.00B22,2013-02-17 05:10:00,
2013-02-17 00:15:00,22.2,8.1,29.81,West,270,3.0,3.0,54,0.00,,,0.00,WeatherCatV1.00B22,2013-02-17 05:15:00,
2013-02-17 00:20:00,22.1,8.0,29.80,WNW,296,2.0,4.0,54,0.00,,,0.00,WeatherCatV1.00B22,2013-02-17 05:20:00,
2013-02-17 00:25:00,22.0,7.9,29.80,WNW,292,1.0,3.0,54,0.00,,,0.00,WeatherCatV1.00B22,2013-02-17 05:25:00,
2013-02-17 00:30:00,22.0,7.5,29.79,WSW,251,4.0,4.0,53,0.00,,,0.00,WeatherCatV1.00B22,2013-02-17 05:30:00,
2013-02-17 00:35:00,22.0,7.5,29.79,West,259,2.0,2.0,53,0.00,,,0.00,WeatherCatV1.00B22,2013-02-17 05:35:00,
2013-02-17 00:40:00,21.9,7.4,29.78,West,259,1.0,3.0,53,0.00,,,0.00,WeatherCatV1.00B22,2013-02-17 05:40:00,
2013-02-17 00:45:00,21.8,6.9,29.78,West,268,6.0,7.0,52,0.00,,,0.00,WeatherCatV1.00B22,2013-02-17 05:45:00,
2013-02-17 00:50:00,21.8,7.3,29.78,WNW,282,0.0,1.0,53,0.00,,,0.00,WeatherCatV1.00B22,2013-02-17 05:50:00,
2013-02-17 00:52:00,21.8,6.5,29.78,North,5,0.0,3.0,51,0.00,,,0.00,WeatherCatV1.00B22,2013-02-17 05:52:00,
2013-02-17 00:57:00,21.7,6.4,29.77,NNW,329,2.0,3.0,51,0.00,,,0.00,WeatherCatV1.00B22,2013-02-17 05:57:00,
2013-02-17 01:00:00,21.7,6.4,29.77,WNW,282,2.0,3.0,51,0.00,,,0.00,WeatherCatV1.00B22,2013-02-17 06:00:00,
2013-02-17 01:05:00,21.7,6.4,29.77,NW,317,1.0,2.0,51,0.00,,,0.00,WeatherCatV1.00B22,2013-02-17 06:05:00,
2013-02-17 01:10:00,21.6,5.9,29.77,West,260,0.0,7.0,50,0.00,,,0.00,WeatherCatV1.00B22,2013-02-17 06:10:00,
2013-02-17 01:15:00,21.6,5.9,29.77,West,272,0.0,2.0,50,0.00,,,0.00,WeatherCatV1.00B22,2013-02-17 06:15:00,
2013-02-17 01:20:00,21.6,6.7,29.77,West,272,1.0,3.0,52,0.00,,,0.00,WeatherCatV1.00B22,2013-02-17 06:20:00,
2013-02-17 01:25:00,21.4,7.0,29.77,West,272,1.0,2.0,53,0.00,,,0.00,WeatherCatV1.00B22,2013-02-17 06:25:00,
2013-02-17 01:30:00,21.3,6.9,29.78,West,275,1.0,1.0,53,0.00,,,0.00,WeatherCatV1.00B22,2013-02-17 06:30:00,
2013-02-17 01:35:00,21.1,5.8,29.78,NNW,335,0.0,2.0,51,0.00,,,0.00,WeatherCatV1.00B22,2013-02-17 06:35:00,
2013-02-17 01:40:00,21.0,6.2,29.78,NNW,333,2.0,3.0,52,0.00,,,0.00,WeatherCatV1.00B22,2013-02-17 06:40:00,
2013-02-17 01:45:00,20.9,6.9,29.78,NNW,333,0.0,1.0,54,0.00,,,0.00,WeatherCatV1.00B22,2013-02-17 06:45:00,
2013-02-17 01:50:00,20.8,6.4,29.77,North,5,1.0,4.0,53,0.00,,,0.00,WeatherCatV1.00B22,2013-02-17 06:50:00,
2013-02-17 01:55:00,20.7,6.3,29.78,North,355,0.0,2.0,53,0.00,,,0.00,WeatherCatV1.00B22,2013-02-17 06:55:00,
2013-02-17 02:00:00,20.7,6.3,29.77,NW,315,0.0,4.0,53,0.00,,,0.00,WeatherCatV1.00B22,2013-02-17 07:00:00,
2013-02-17 02:05:00,20.6,6.6,29.76,NW,304,1.0,2.0,54,0.00,,,0.00,WeatherCatV1.00B22,2013-02-17 07:05:00,
2013-02-17 02:10:00,20.6,5.8,29.76,West,269,0.0,2.0,52,0.00,,,0.00,WeatherCatV1.00B22,2013-02-17 07:10:00,
2013-02-17 02:15:00,20.5,6.1,29.75,West,263,2.0,7.0,53,0.00,,,0.00,WeatherCatV1.00B22,2013-02-17 07:15:00,
2013-02-17 02:20:00,20.5,5.7,29.75,NE,38,1.0,3.0,52,0.00,,,0.00,WeatherCatV1.00B22,2013-02-17 07:20:00,
2013-02-17 02:25:00,20.5,6.1,29.75,West,269,1.0,3.0,53,0.00,,,0.00,WeatherCatV1.00B22,2013-02-17 07:25:00,
2013-02-17 02:30:00,20.5,4.8,29.75,West,279,4.0,7.0,50,0.00,,,0.00,WeatherCatV1.00B22,2013-02-17 07:30:00,
2013-02-17 02:35:00,20.5,5.3,29.75,SSE,162,1.0,4.0,51,0.00,,,0.00,WeatherCatV1.00B22,2013-02-17 07:35:00,
2013-02-17 02:40:00,20.5,4.8,29.75,West,268,2.0,5.0,50,0.00,,,0.00,WeatherCatV1.00B22,2013-02-17 07:40:00,
2013-02-17 02:45:00,20.5,4.8,29.75,West,261,1.0,8.0,50,0.00,,,0.00,WeatherCatV1.00B22,2013-02-17 07:45:00,
2013-02-17 02:50:00,20.4,5.6,29.76,North,0,4.0,6.0,52,0.00,,,0.00,WeatherCatV1.00B22,2013-02-17 07:50:00,
2013-02-17 02:55:00,20.4,4.8,29.76,West,273,1.0,3.0,50,0.00,,,0.00,WeatherCatV1.00B22,2013-02-17 07:55:00,
2013-02-17 03:00:00,20.4,5.2,29.75,WNW,303,2.0,2.0,51,0.00,,,0.00,WeatherCatV1.00B22,2013-02-17 08:00:00,
2013-02-17 03:05:00,20.3,5.5,29.74,West,279,2.0,3.0,52,0.00,,,0.00,WeatherCatV1.00B22,2013-02-17 08:05:00,
2013-02-17 03:10:00,20.2,5.0,29.74,WSW,243,3.0,3.0,51,0.00,,,0.00,WeatherCatV1.00B22,2013-02-17 08:10:00,
2013-02-17 03:15:00,20.2,5.4,29.74,West,268,1.0,4.0,52,0.00,,,0.00,WeatherCatV1.00B22,2013-02-17 08:15:00,
2013-02-17 03:20:00,20.1,5.3,29.74,NNE,15,1.0,5.0,52,0.00,,,0.00,WeatherCatV1.00B22,2013-02-17 08:20:00,
2013-02-17 03:25:00,20.0,5.7,29.74,WSW,252,0.0,4.0,53,0.00,,,0.00,WeatherCatV1.00B22,2013-02-17 08:25:00,
2013-02-17 03:30:00,19.9,5.6,29.74,WSW,244,2.0,3.0,53,0.00,,,0.00,WeatherCatV1.00B22,2013-02-17 08:30:00,
2013-02-17 03:35:00,19.8,5.5,29.74,West,260,1.0,4.0,53,0.00,,,0.00,WeatherCatV1.00B22,2013-02-17 08:35:00,
2013-02-17 03:40:00,19.7,5.4,29.74,SW,231,4.0,4.0,53,0.00,,,0.00,WeatherCatV1.00B22,2013-02-17 08:40:00,
2013-02-17 03:45:00,19.6,5.7,29.74,SW,225,3.0,6.0,54,0.00,,,0.00,WeatherCatV1.00B22,2013-02-17 08:45:00,
2013-02-17 03:50:00,19.5,5.6,29.74,WSW,256,2.0,5.0,54,0.00,,,0.00,WeatherCatV1.00B22,2013-02-17 08:50:00,
2013-02-17 03:55:00,19.4,5.9,29.74,SW,235,0.0,2.0,55,0.00,,,0.00,WeatherCatV1.00B22,2013-02-17 08:55:00,
2013-02-17 04:00:00,19.2,6.1,29.73,WSW,250,3.0,6.0,56,0.00,,,0.00,WeatherCatV1.00B22,2013-02-17 09:00:00,
2013-02-17 04:05:00,19.1,6.0,29.73,NW,323,1.0,7.0,56,0.00,,,0.00,WeatherCatV1.00B22,2013-02-17 09:05:00,
2013-02-17 04:10:00,18.9,5.8,29.74,West,271,2.0,5.0,56,0.00,,,0.00,WeatherCatV1.00B22,2013-02-17 09:10:00,
2013-02-17 04:15:00,18.9,5.8,29.73,WNW,288,3.0,3.0,56,0.00,,,0.00,WeatherCatV1.00B22,2013-02-17 09:15:00,
2013-02-17 04:20:00,18.8,5.7,29.74,SW,227,3.0,4.0,56,0.00,,,0.00,WeatherCatV1.00B22,2013-02-17 09:20:00,
2013-02-17 04:25:00,18.8,6.1,29.74,WNW,290,2.0,3.0,57,0.00,,,0.00,WeatherCatV1.00B22,2013-02-17 09:25:00,
2013-02-17 04:30:00,18.7,5.6,29.73,SW,236,1.0,6.0,56,0.00,,,0.00,WeatherCatV1.00B22,2013-02-17 09:30:00,
2013-02-17 04:35:00,18.6,5.5,29.73,NW,313,0.0,4.0,56,0.00,,,0.00,WeatherCatV1.00B22,2013-02-17 09:35:00,
2013-02-17 04:40:00,18.5,5.8,29.73,West,277,3.0,8.0,57,0.00,,,0.00,WeatherCatV1.00B22,2013-02-17 09:40:00,
2013-02-17 04:45:00,18.4,5.7,29.73,West,267,3.0,4.0,57,0.00,,,0.00,WeatherCatV1.00B22,2013-02-17 09:45:00,
2013-02-17 04:50:00,18.2,5.9,29.74,West,264,4.0,4.0,58,0.00,,,0.00,WeatherCatV1.00B22,2013-02-17 09:50:00,
2013-02-17 04:55:00,18.2,5.9,29.73,West,265,1.0,3.0,58,0.00,,,0.00,WeatherCatV1.00B22,2013-02-17 09:55:00,
2013-02-17 05:00:00,18.1,6.2,29.73,West,275,3.0,4.0,59,0.00,,,0.00,WeatherCatV1.00B22,2013-02-17 10:00:00,
2013-02-17 05:05:00,18.0,5.7,29.73,West,269,3.0,4.0,58,0.00,,,0.00,WeatherCatV1.00B22,2013-02-17 10:05:00,
2013-02-17 05:10:00,18.0,6.5,29.73,West,281,0.0,5.0,60,0.00,,,0.00,WeatherCatV1.00B22,2013-02-17 10:10:00,
2013-02-17 05:15:00,18.0,6.5,29.73,West,265,3.0,3.0,60,0.00,,,0.00,WeatherCatV1.00B22,2013-02-17 10:15:00,
2013-02-17 05:20:00,17.9,5.7,29.73,West,270,3.0,3.0,58,0.00,,,0.00,WeatherCatV1.00B22,2013-02-17 10:20:00,
2013-02-17 05:25:00,17.9,6.0,29.73,West,269,2.0,3.0,59,0.00,,,0.00,WeatherCatV1.00B22,2013-02-17 10:25:00,
2013-02-17 05:30:00,17.7,5.8,29.73,West,264,5.0,6.0,59,0.00,,,0.00,WeatherCatV1.00B22,2013-02-17 10:30:00,
2013-02-17 05:35:00,17.7,5.8,29.73,WNW,292,5.0,5.0,59,0.00,,,0.00,WeatherCatV1.00B22,2013-02-17 10:35:00,
2013-02-17 05:40:00,17.6,5.7,29.73,West,261,3.0,4.0,59,0.00,,,0.00,WeatherCatV1.00B22,2013-02-17 10:40:00,
2013-02-17 05:45:00,17.5,5.6,29.73,WNW,284,1.0,7.0,59,0.00,,,0.00,WeatherCatV1.00B22,2013-02-17 10:45:00,
2013-02-17 05:50:00,17.4,5.9,29.72,WNW,302,1.0,4.0,60,0.00,,,0.00,WeatherCatV1.00B22,2013-02-17 10:50:00,
2013-02-17 05:55:00,17.4,5.9,29.72,North,9,2.0,5.0,60,0.00,,,0.00,WeatherCatV1.00B22,2013-02-17 10:55:00,
2013-02-17 06:00:00,17.3,6.2,29.73,WNW,284,3.0,4.0,61,0.00,,,0.00,WeatherCatV1.00B22,2013-02-17 11:00:00,
2013-02-17 06:05:00,17.3,6.2,29.73,NW,323,1.0,5.0,61,0.00,,,0.00,WeatherCatV1.00B22,2013-02-17 11:05:00,
2013-02-17 06:10:00,17.2,6.4,29.73,WNW,294,0.0,4.0,62,0.00,,,0.00,WeatherCatV1.00B22,2013-02-17 11:10:00,
2013-02-17 06:15:00,17.1,6.4,29.72,WNW,287,2.0,10.0,62,0.00,,,0.00,WeatherCatV1.00B22,2013-02-17 11:15:00,
2013-02-17 06:20:00,17.0,5.9,29.72,North,350,7.0,7.0,61,0.00,,,0.00,WeatherCatV1.00B22,2013-02-17 11:20:00,
2013-02-17 06:25:00,16.8,5.7,29.71,NW,310,3.0,7.0,61,0.00,,,0.00,WeatherCatV1.00B22,2013-02-17 11:25:00,
2013-02-17 06:30:00,16.7,5.6,29.70,NW,324,4.0,7.0,61,0.00,,,0.00,WeatherCatV1.00B22,2013-02-17 11:30:00,
2013-02-17 06:35:00,16.5,5.4,29.70,North,5,3.0,8.0,61,0.00,,,0.00,WeatherCatV1.00B22,2013-02-17 11:35:00,
2013-02-17 06:40:00,16.4,5.7,29.70,WNW,290,1.0,4.0,62,0.00,,,0.00,WeatherCatV1.00B22,2013-02-17 11:40:00,
2013-02-17 06:45:00,16.3,5.6,29.71,SW,228,3.0,6.0,62,0.00,,,0.00,WeatherCatV1.00B22,2013-02-17 11:45:00,
2013-02-17 06:50:00,16.2,5.5,29.71,WNW,300,2.0,5.0,62,0.00,,,0.00,WeatherCatV1.00B22,2013-02-17 11:50:00,
2013-02-17 06:55:00,16.2,5.5,29.71,SSW,211,5.0,8.0,62,0.00,,,0.00,WeatherCatV1.00B22,2013-02-17 11:55:00,
2013-02-17 07:00:00,16.0,5.7,29.71,WNW,285,1.0,6.0,63,0.00,,,0.00,WeatherCatV1.00B22,2013-02-17 12:00:00,
2013-02-17 07:05:00,15.9,5.2,29.71,West,281,4.0,8.0,62,0.00,,,0.00,WeatherCatV1.00B22,2013-02-17 12:05:00,
2013-02-17 07:10:00,15.8,5.5,29.71,WSW,248,5.0,5.0,63,0.00,,,0.00,WeatherCatV1.00B22,2013-02-17 12:10:00,
2013-02-17 07:15:00,15.8,5.1,29.71,WNW,297,2.0,4.0,62,0.00,,,0.00,WeatherCatV1.00B22,2013-02-17 12:15:00,
2013-02-17 07:20:00,15.7,5.4,29.71,West,267,1.0,5.0,63,0.00,,,0.00,WeatherCatV1.00B22,2013-02-17 12:20:00,
2013-02-17 07:25:00,15.5,5.2,29.71,WNW,301,2.0,6.0,63,0.00,,,0.00,WeatherCatV1.00B22,2013-02-17 12:25:00,
2013-02-17 07:30:00,15.5,5.2,29.71,West,274,2.0,12.0,63,0.00,,,0.00,WeatherCatV1.00B22,2013-02-17 12:30:00,
2013-02-17 07:35:00,15.5,5.5,29.71,WNW,302,2.0,6.0,64,0.00,,,0.00,WeatherCatV1.00B22,2013-02-17 12:35:00,
2013-02-17 07:40:00,15.4,5.4,29.70,WNW,290,2.0,4.0,64,0.00,,,0.00,WeatherCatV1.00B22,2013-02-17 12:40:00,
2013-02-17 07:45:00,15.4,5.4,29.70,NNW,344,3.0,3.0,64,0.00,,,0.00,WeatherCatV1.00B22,2013-02-17 12:45:00,
2013-02-17 07:50:00,15.4,5.4,29.70,NW,323,1.0,4.0,64,0.00,,,0.00,WeatherCatV1.00B22,2013-02-17 12:50:00,
2013-02-17 07:55:00,15.4,5.4,29.69,WNW,296,5.0,7.0,64,0.00,,,0.00,WeatherCatV1.00B22,2013-02-17 12:55:00,
2013-02-17 08:00:00,15.4,5.4,29.69,NNW,327,2.0,6.0,64,0.00,,,0.00,WeatherCatV1.00B22,2013-02-17 13:00:00,
2013-02-17 08:05:00,15.4,5.8,29.69,West,275,3.0,6.0,65,0.00,,,0.00,WeatherCatV1.00B22,2013-02-17 13:05:00,
2013-02-17 08:10:00,15.4,5.8,29.69,NNW,339,2.0,6.0,65,0.00,,,0.00,WeatherCatV1.00B22,2013-02-17 13:10:00,
2013-02-17 08:15:00,15.4,5.8,29.69,West,277,3.0,5.0,65,0.00,,,0.00,WeatherCatV1.00B22,2013-02-17 13:15:00,
2013-02-17 08:20:00,15.4,6.1,29.69,NW,317,2.0,5.0,66,0.00,,,0.00,WeatherCatV1.00B22,2013-02-17 13:20:00,
2013-02-17 08:25:00,15.4,6.1,29.69,NNW,341,1.0,5.0,66,0.00,,,0.00,WeatherCatV1.00B22,2013-02-17 13:25:00,
2013-02-17 08:30:00,15.3,6.0,29.69,NNW,346,2.0,13.0,66,0.00,,,0.00,WeatherCatV1.00B22,2013-02-17 13:30:00,
2013-02-17 08:35:00,15.3,6.0,29.69,WSW,240,5.0,8.0,66,0.00,,,0.00,WeatherCatV1.00B22,2013-02-17 13:35:00,
2013-02-17 08:40:00,15.3,6.3,29.68,NW,304,1.0,3.0,67,0.00,,,0.00,WeatherCatV1.00B22,2013-02-17 13:40:00,
2013-02-17 08:45:00,15.4,6.8,29.68,NNW,332,4.0,5.0,68,0.00,,,0.00,WeatherCatV1.00B22,2013-02-17 13:45:00,
2013-02-17 08:50:00,15.4,6.4,29.68,West,275,4.0,4.0,67,0.00,,,0.00,WeatherCatV1.00B22,2013-02-17 13:50:00,
2013-02-17 08:55:00,15.5,6.5,29.68,WSW,242,5.0,6.0,67,0.00,,,0.00,WeatherCatV1.00B22,2013-02-17 13:55:00,
2013-02-17 09:00:00,15.5,6.9,29.68,West,268,5.0,5.0,68,0.00,,,0.00,WeatherCatV1.00B22,2013-02-17 14:00:00,
2013-02-17 09:05:00,15.6,6.6,29.68,West,273,2.0,8.0,67,0.00,,,0.00,WeatherCatV1.00B22,2013-02-17 14:05:00,
2013-02-17 09:10:00,15.6,6.6,29.68,WSW,252,3.0,5.0,67,0.00,,,0.00,WeatherCatV1.00B22,2013-02-17 14:10:00,
2013-02-17 09:15:00,15.7,6.7,29.68,North,11,4.0,6.0,67,0.00,,,0.00,WeatherCatV1.00B22,2013-02-17 14:15:00,
2013-02-17 09:20:00,15.6,6.6,29.68,WSW,254,1.0,5.0,67,0.00,,,0.00,WeatherCatV1.00B22,2013-02-17 14:20:00,
2013-02-17 09:25:00,15.7,6.7,29.67,North,351,8.0,10.0,67,0.00,,,0.00,WeatherCatV1.00B22,2013-02-17 14:25:00,
2013-02-17 09:30:00,15.7,6.7,29.67,WNW,297,4.0,6.0,67,0.00,,,0.00,WeatherCatV1.00B22,2013-02-17 14:30:00,
2013-02-17 09:35:00,15.5,6.2,29.67,WNW,290,5.0,10.0,66,0.00,,,0.00,WeatherCatV1.00B22,2013-02-17 14:35:00,
2013-02-17 09:40:00,15.5,6.5,29.68,North,0,7.0,12.0,67,0.00,,,0.00,WeatherCatV1.00B22,2013-02-17 14:40:00,
2013-02-17 09:45:00,15.5,6.5,29.67,NW,317,4.0,7.0,67,0.00,,,0.00,WeatherCatV1.00B22,2013-02-17 14:45:00,
2013-02-17 09:50:00,15.4,6.4,29.67,West,267,3.0,9.0,67,0.00,,,0.00,WeatherCatV1.00B22,2013-02-17 14:50:00,
2013-02-17 09:55:00,15.4,6.1,29.67,NNE,15,4.0,6.0,66,0.00,,,0.00,WeatherCatV1.00B22,2013-02-17 14:55:00,
2013-02-17 10:00:00,15.4,6.4,29.67,WNW,285,3.0,6.0,67,0.00,,,0.00,WeatherCatV1.00B22,2013-02-17 15:00:00,
2013-02-17 10:05:00,15.5,6.9,29.67,WNW,293,3.0,8.0,68,0.00,,,0.00,WeatherCatV1.00B22,2013-02-17 15:05:00,
2013-02-17 10:10:00,15.7,6.7,29.67,North,0,3.0,5.0,67,0.00,,,0.00,WeatherCatV1.00B22,2013-02-17 15:10:00,
2013-02-17 10:15:00,15.6,6.6,29.67,West,270,3.0,11.0,67,0.00,,,0.00,WeatherCatV1.00B22,2013-02-17 15:15:00,
2013-02-17 10:20:00,15.5,6.5,29.67,NE,34,1.0,7.0,67,0.00,,,0.00,WeatherCatV1.00B22,2013-02-17 15:20:00,
2013-02-17 10:25:00,15.8,6.8,29.66,North,355,3.0,10.0,67,0.00,,,0.00,WeatherCatV1.00B22,2013-02-17 15:25:00,
2013-02-17 10:30:00,16.0,6.7,29.66,WNW,286,3.0,11.0,66,0.00,,,0.00,WeatherCatV1.00B22,2013-02-17 15:30:00,
2013-02-17 10:35:00,16.1,6.8,29.65,WSW,241,4.0,6.0,66,0.00,,,0.00,WeatherCatV1.00B22,2013-02-17 15:35:00,
2013-02-17 10:40:00,16.3,7.0,29.65,West,269,1.0,7.0,66,0.00,,,0.00,WeatherCatV1.00B22,2013-02-17 15:40:00,
2013-02-17 10:45:00,16.4,6.4,29.66,WSW,237,5.0,8.0,64,0.00,,,0.00,WeatherCatV1.00B22,2013-02-17 15:45:00,
2013-02-17 10:50:00,16.4,6.4,29.66,NW,306,2.0,8.0,64,0.00,,,0.00,WeatherCatV1.00B22,2013-02-17 15:50:00,
2013-02-17 10:55:00,16.4,6.4,29.66,West,275,1.0,7.0,64,0.00,,,0.00,WeatherCatV1.00B22,2013-02-17 15:55:00,
2013-02-17 11:00:00,16.6,6.6,29.66,West,271,2.0,4.0,64,0.00,,,0.00,WeatherCatV1.00B22,2013-02-17 16:00:00,
2013-02-17 11:05:00,17.0,7.0,29.66,WNW,299,3.0,6.0,64,0.00,,,0.00,WeatherCatV1.00B22,2013-02-17 16:05:00,
2013-02-17 11:10:00,17.0,7.0,29.66,NNW,342,4.0,5.0,64,0.00,,,0.00,WeatherCatV1.00B22,2013-02-17 16:10:00,
2013-02-17 11:15:00,16.8,6.4,29.66,WSW,247,4.0,6.0,63,0.00,,,0.00,WeatherCatV1.00B22,2013-02-17 16:15:00,
2013-02-17 11:20:00,16.8,6.8,29.66,ENE,59,1.0,8.0,64,0.00,,,0.00,WeatherCatV1.00B22,2013-02-17 16:20:00,
2013-02-17 11:25:00,17.1,7.1,29.66,West,280,7.0,7.0,64,0.00,,,0.00,WeatherCatV1.00B22,2013-02-17 16:25:00,
2013-02-17 11:30:00,17.3,7.2,29.66,WSW,242,4.0,9.0,64,0.00,,,0.00,WeatherCatV1.00B22,2013-02-17 16:30:00,
2013-02-17 11:35:00,17.2,6.8,29.66,North,5,3.0,8.0,63,0.00,,,0.00,WeatherCatV1.00B22,2013-02-17 16:35:00,
2013-02-17 11:40:00,17.2,6.4,29.65,WNW,288,7.0,13.0,62,0.00,,,0.00,WeatherCatV1.00B22,2013-02-17 16:40:00,
2013-02-17 11:45:00,17.3,6.9,29.65,NNW,348,6.0,6.0,63,0.00,,,0.00,WeatherCatV1.00B22,2013-02-17 16:45:00,
2013-02-17 11:50:00,17.7,7.6,29.64,NNW,334,3.0,6.0,64,0.00,,,0.00,WeatherCatV1.00B22,2013-02-17 16:50:00,
2013-02-17 11:55:00,18.1,7.7,29.64,NNW,328,6.0,7.0,63,0.00,,,0.00,WeatherCatV1.00B22,2013-02-17 16:55:00,
2013-02-17 12:00:00,18.2,7.4,29.64,North,5,4.0,4.0,62,0.00,,,0.00,WeatherCatV1.00B22,2013-02-17 17:00:00,
2013-02-17 12:05:00,18.5,8.0,29.64,SSW,206,0.0,4.0,63,0.00,,,0.00,WeatherCatV1.00B22,2013-02-17 17:05:00,
2013-02-17 12:10:00,18.6,7.4,29.64,North,349,3.0,10.0,61,0.00,,,0.00,WeatherCatV1.00B22,2013-02-17 17:10:00,
2013-02-17 12:15:00,18.6,7.4,29.64,West,265,3.0,8.0,61,0.00,,,0.00,WeatherCatV1.00B22,2013-02-17 17:15:00,
2013-02-17 12:20:00,18.7,7.9,29.64,NW,307,1.0,7.0,62,0.00,,,0.00,WeatherCatV1.00B22,2013-02-17 17:20:00,
2013-02-17 12:25:00,19.0,8.2,29.64,West,277,3.0,6.0,62,0.00,,,0.00,WeatherCatV1.00B22,2013-02-17 17:25:00,
2013-02-17 12:30:00,19.4,8.2,29.64,NW,304,2.0,3.0,61,0.00,,,0.00,WeatherCatV1.00B22,2013-02-17 17:30:00,
2013-02-17 12:35:00,19.5,7.2,29.64,North,5,2.0,5.0,58,0.00,,,0.00,WeatherCatV1.00B22,2013-02-17 17:35:00,
2013-02-17 12:40:00,19.5,7.2,29.64,WNW,285,2.0,10.0,58,0.00,,,0.00,WeatherCatV1.00B22,2013-02-17 17:40:00,
2013-02-17 12:45:00,19.7,7.3,29.63,NNE,28,2.0,6.0,58,0.00,,,0.00,WeatherCatV1.00B22,2013-02-17 17:45:00,
2013-02-17 12:50:00,20.1,7.0,29.63,North,349,4.0,10.0,56,0.00,,,0.00,WeatherCatV1.00B22,2013-02-17 17:50:00,
2013-02-17 12:55:00,20.2,5.8,29.63,NNW,329,4.0,9.0,53,0.00,,,0.00,WeatherCatV1.00B22,2013-02-17 17:55:00,
2013-02-17 13:00:00,20.4,6.4,29.63,SW,219,4.0,7.0,54,0.00,,,0.00,WeatherCatV1.00B22,2013-02-17 18:00:00,
2013-02-17 13:05:00,20.7,6.3,29.63,North,355,5.0,6.0,53,0.00,,,0.00,WeatherCatV1.00B22,2013-02-17 18:05:00,
2013-02-17 13:10:00,20.6,5.4,29.62,NE,47,3.0,13.0,51,0.00,,,0.00,WeatherCatV1.00B22,2013-02-17 18:10:00,
2013-02-17 13:15:00,20.5,5.3,29.62,North,5,1.0,10.0,51,0.00,,,0.00,WeatherCatV1.00B22,2013-02-17 18:15:00,
2013-02-17 13:20:00,20.4,6.0,29.62,NNE,15,3.0,4.0,53,0.00,,,0.00,WeatherCatV1.00B22,2013-02-17 18:20:00,
2013-02-17 13:25:00,20.7,5.5,29.62,North,9,3.0,9.0,51,0.00,,,0.00,WeatherCatV1.00B22,2013-02-17 18:25:00,
2013-02-17 13:30:00,21.1,6.7,29.62,NE,44,5.0,6.0,53,0.00,,,0.00,WeatherCatV1.00B22,2013-02-17 18:30:00,
2013-02-17 13:35:00,21.3,5.6,29.62,NNE,29,6.0,9.0,50,0.00,,,0.00,WeatherCatV1.00B22,2013-02-17 18:35:00,
2013-02-17 13:40:00,21.4,6.1,29.62,West,263,2.0,8.0,51,0.00,,,0.00,WeatherCatV1.00B22,2013-02-17 18:40:00,
2013-02-17 13:45:00,21.5,5.8,29.62,NNE,20,2.0,10.0,50,0.00,,,0.00,WeatherCatV1.00B22,2013-02-17 18:45:00,
2013-02-17 13:50:00,21.6,5.9,29.62,North,0,1.0,7.0,50,0.00,,,0.00,WeatherCatV1.00B22,2013-02-17 18:50:00,
2013-02-17 13:55:00,21.9,6.1,29.62,NW,311,3.0,10.0,50,0.00,,,0.00,WeatherCatV1.00B22,2013-02-17 18:55:00,
2013-02-17 14:00:00,22.2,5.1,29.61,NE,39,2.0,6.0,47,0.00,,,0.00,WeatherCatV1.00B22,2013-02-17 19:00:00,
2013-02-17 14:05:00,22.6,5.4,29.62,NW,315,3.0,3.0,47,0.00,,,0.00,WeatherCatV1.00B22,2013-02-17 19:05:00,
2013-02-17 14:10:00,22.7,5.1,29.61,West,271,3.0,16.0,46,0.00,,,0.00,WeatherCatV1.00B22,2013-02-17 19:10:00,
2013-02-17 14:15:00,22.7,4.6,29.61,NNW,338,5.0,7.0,45,0.00,,,0.00,WeatherCatV1.00B22,2013-02-17 19:15:00,
2013-02-17 14:20:00,22.6,5.0,29.61,NW,315,7.0,7.0,46,0.00,,,0.00,WeatherCatV1.00B22,2013-02-17 19:20:00,
2013-02-17 14:25:00,22.6,4.5,29.61,NW,320,6.0,6.0,45,0.00,,,0.00,WeatherCatV1.00B22,2013-02-17 19:25:00,
2013-02-17 14:30:00,22.7,5.1,29.62,NNW,344,5.0,7.0,46,0.00,,,0.00,WeatherCatV1.00B22,2013-02-17 19:30:00,
2013-02-17 14:35:00,22.9,4.8,29.62,WNW,285,3.0,3.0,45,0.00,,,0.00,WeatherCatV1.00B22,2013-02-17 19:35:00,
2013-02-17 14:40:00,23.3,4.2,29.62,NW,323,2.0,8.0,43,0.00,,,0.00,WeatherCatV1.00B22,2013-02-17 19:40:00,
2013-02-17 14:45:00,23.6,4.4,29.62,West,275,4.0,5.0,43,0.00,,,0.00,WeatherCatV1.00B22,2013-02-17 19:45:00,
2013-02-17 14:50:00,23.5,2.8,29.62,WSW,252,7.0,13.0,40,0.00,,,0.00,WeatherCatV1.00B22,2013-02-17 19:50:00,
2013-02-17 14:55:00,23.4,3.7,29.62,South,190,5.0,8.0,42,0.00,,,0.00,WeatherCatV1.00B22,2013-02-17 19:55:00,
2013-02-17 15:00:00,23.4,3.2,29.62,NNE,13,5.0,6.0,41,0.00,,,0.00,WeatherCatV1.00B22,2013-02-17 20:00:00,
2013-02-17 15:05:00,23.4,3.2,29.62,NNW,348,6.0,6.0,41,0.00,,,0.00,WeatherCatV1.00B22,2013-02-17 20:05:00,
2013-02-17 15:10:00,23.4,3.2,29.62,NNW,345,5.0,7.0,41,0.00,,,0.00,WeatherCatV1.00B22,2013-02-17 20:10:00,
2013-02-17 15:15:00,23.2,2.0,29.62,NW,321,5.0,10.0,39,0.00,,,0.00,WeatherCatV1.00B22,2013-02-17 20:15:00,
2013-02-17 15:20:00,23.1,2.4,29.62,WNW,290,2.0,8.0,40,0.00,,,0.00,WeatherCatV1.00B22,2013-02-17 20:20:00,
2013-02-17 15:25:00,23.2,3.0,29.62,NNW,338,9.0,9.0,41,0.00,,,0.00,WeatherCatV1.00B22,2013-02-17 20:25:00,
2013-02-17 15:30:00,23.1,1.9,29.63,NW,312,3.0,8.0,39,0.00,,,0.00,WeatherCatV1.00B22,2013-02-17 20:30:00,
2013-02-17 15:35:00,23.0,1.8,29.62,NNE,28,5.0,10.0,39,0.00,,,0.00,WeatherCatV1.00B22,2013-02-17 20:35:00,
2013-02-17 15:40:00,23.0,2.3,29.62,NNW,339,4.0,9.0,40,0.00,,,0.00,WeatherCatV1.00B22,2013-02-17 20:40:00,
2013-02-17 15:45:00,23.0,1.8,29.62,NE,38,4.0,18.0,39,0.00,,,0.00,WeatherCatV1.00B22,2013-02-17 20:45:00,
2013-02-17 15:50:00,22.8,1.6,29.62,SSW,205,7.0,7.0,39,0.00,,,0.00,WeatherCatV1.00B22,2013-02-17 20:50:00,
2013-02-17 15:55:00,22.6,1.4,29.63,NW,318,10.0,10.0,39,0.00,,,0.00,WeatherCatV1.00B22,2013-02-17 20:55:00,
2013-02-17 16:00:00,22.5,1.9,29.63,WNW,296,2.0,10.0,40,0.00,,,0.00,WeatherCatV1.00B22,2013-02-17 21:00:00,
2013-02-17 16:05:00,22.4,1.8,29.63,North,0,6.0,11.0,40,0.00,,,0.00,WeatherCatV1.00B22,2013-02-17 21:05:00,
2013-02-17 16:10:00,22.3,2.2,29.63,SE,126,4.0,4.0,41,0.00,,,0.00,WeatherCatV1.00B22,2013-02-17 21:10:00,
2013-02-17 16:15:00,22.2,2.6,29.63,West,277,4.0,5.0,42,0.00,,,0.00,WeatherCatV1.00B22,2013-02-17 21:15:00,
2013-02-17 16:20:00,22.2,2.1,29.63,NNW,345,1.0,5.0,41,0.00,,,0.00,WeatherCatV1.00B22,2013-02-17 21:20:00,
2013-02-17 16:25:00,22.1,2.0,29.64,NE,36,2.0,7.0,41,0.00,,,0.00,WeatherCatV1.00B22,2013-02-17 21:25:00,
2013-02-17 16:30:00,22.0,1.9,29.64,West,273,3.0,7.0,41,0.00,,,0.00,WeatherCatV1.00B22,2013-02-17 21:30:00,
2013-02-17 16:35:00,21.8,1.8,29.64,NW,321,1.0,4.0,41,0.00,,,0.00,WeatherCatV1.00B22,2013-02-17 21:35:00,
2013-02-17 16:40:00,21.6,1.6,29.65,NW,313,3.0,4.0,41,0.00,,,0.00,WeatherCatV1.00B22,2013-02-17 21:40:00,
2013-02-17 16:45:00,21.5,2.5,29.65,NNW,343,3.0,7.0,43,0.00,,,0.00,WeatherCatV1.00B22,2013-02-17 21:45:00,
2013-02-17 16:50:00,21.4,1.9,29.65,North,350,2.0,4.0,42,0.00,,,0.00,WeatherCatV1.00B22,2013-02-17 21:50:00,
2013-02-17 16:55:00,21.3,1.8,29.66,WNW,292,4.0,9.0,42,0.00,,,0.00,WeatherCatV1.00B22,2013-02-17 21:55:00,
2013-02-17 17:00:00,21.2,2.2,29.66,NW,323,4.0,5.0,43,0.00,,,0.00,WeatherCatV1.00B22,2013-02-17 22:00:00,
2013-02-17 17:05:00,21.1,2.1,29.67,NE,56,4.0,4.0,43,0.00,,,0.00,WeatherCatV1.00B22,2013-02-17 22:05:00,
2013-02-17 17:10:00,20.9,2.5,29.67,WNW,286,5.0,5.0,44,0.00,,,0.00,WeatherCatV1.00B22,2013-02-17 22:10:00,
2013-02-17 17:15:00,20.5,1.6,29.67,NE,39,1.0,9.0,43,0.00,,,0.00,WeatherCatV1.00B22,2013-02-17 22:15:00,
2013-02-17 17:20:00,20.3,1.9,29.67,NNW,348,5.0,9.0,44,0.00,,,0.00,WeatherCatV1.00B22,2013-02-17 22:20:00,
2013-02-17 17:25:00,20.1,1.7,29.68,NW,321,2.0,9.0,44,0.00,,,0.00,WeatherCatV1.00B22,2013-02-17 22:25:00,
2013-02-17 17:30:00,19.9,1.5,29.68,ENE,57,2.0,3.0,44,0.00,,,0.00,WeatherCatV1.00B22,2013-02-17 22:30:00,
2013-02-17 17:35:00,19.8,1.0,29.69,WNW,283,3.0,8.0,43,0.00,,,0.00,WeatherCatV1.00B22,2013-02-17 22:35:00,
2013-02-17 17:40:00,19.7,1.4,29.69,NNE,16,3.0,5.0,44,0.00,,,0.00,WeatherCatV1.00B22,2013-02-17 22:40:00,
2013-02-17 17:45:00,19.6,1.3,29.70,NW,309,3.0,4.0,44,0.00,,,0.00,WeatherCatV1.00B22,2013-02-17 22:45:00,
2013-02-17 17:50:00,19.5,1.2,29.70,NE,55,3.0,12.0,44,0.00,,,0.00,WeatherCatV1.00B22,2013-02-17 22:50:00,
2013-02-17 17:55:00,19.3,1.9,29.70,NNW,337,5.0,9.0,46,0.00,,,0.00,WeatherCatV1.00B22,2013-02-17 22:55:00,
2013-02-17 18:00:00,19.1,1.3,29.71,WNW,291,6.0,8.0,45,0.00,,,0.00,WeatherCatV1.00B22,2013-02-17 23:00:00,
2013-02-17 18:05:00,18.9,1.6,29.71,SSE,162,7.0,17.0,46,0.00,,,0.00,WeatherCatV1.00B22,2013-02-17 23:05:00,
2013-02-17 18:10:00,18.7,1.4,29.71,North,5,1.0,6.0,46,0.00,,,0.00,WeatherCatV1.00B22,2013-02-17 23:10:00,
2013-02-17 18:15:00,18.5,0.7,29.72,NW,311,2.0,14.0,45,0.00,,,0.00,WeatherCatV1.00B22,2013-02-17 23:15:00,
2013-02-17 18:20:00,18.4,0.6,29.72,SSE,153,4.0,5.0,45,0.00,,,0.00,WeatherCatV1.00B22,2013-02-17 23:20:00,
2013-02-17 18:25:00,18.2,0.9,29.73,NNE,24,0.0,6.0,46,0.00,,,0.00,WeatherCatV1.00B22,2013-02-17 23:25:00,
2013-02-17 18:30:00,18.1,0.8,29.73,NW,307,1.0,8.0,46,0.00,,,0.00,WeatherCatV1.00B22,2013-02-17 23:30:00,
2013-02-17 18:35:00,17.9,0.7,29.73,SW,227,2.0,7.0,46,0.00,,,0.00,WeatherCatV1.00B22,2013-02-17 23:35:00,
2013-02-17 18:40:00,17.8,0.6,29.74,NNE,32,8.0,8.0,46,0.00,,,0.00,WeatherCatV1.00B22,2013-02-17 23:40:00,
2013-02-17 18:45:00,17.7,0.9,29.74,North,355,4.0,10.0,47,0.00,,,0.00,WeatherCatV1.00B22,2013-02-17 23:45:00,
2013-02-17 18:50:00,17.5,1.2,29.74,NW,323,1.0,3.0,48,0.00,,,0.00,WeatherCatV1.00B22,2013-02-17 23:50:00,
2013-02-17 18:55:00,17.2,0.5,29.75,North,355,4.0,9.0,47,0.00,,,0.00,WeatherCatV1.00B22,2013-02-17 23:55:00,
2013-02-17 19:00:00,17.1,0.8,29.74,NNW,348,5.0,5.0,48,0.00,,,0.00,WeatherCatV1.00B22,2013-02-18 00:00:00,
2013-02-17 19:05:00,16.9,1.1,29.75,NNW,331,3.0,4.0,49,0.00,,,0.00,WeatherCatV1.00B22,2013-02-18 00:05:00,
2013-02-17 19:10:00,16.7,1.3,29.75,NW,317,2.0,6.0,50,0.00,,,0.00,WeatherCatV1.00B22,2013-02-18 00:10:00,
2013-02-17 19:15:00,16.5,1.1,29.75,NNW,339,0.0,5.0,50,0.00,,,0.00,WeatherCatV1.00B22,2013-02-18 00:15:00,
2013-02-17 19:20:00,16.2,1.3,29.76,WNW,293,3.0,11.0,51,0.00,,,0.00,WeatherCatV1.00B22,2013-02-18 00:20:00,
2013-02-17 19:25:00,16.0,1.1,29.76,WNW,300,4.0,8.0,51,0.00,,,0.00,WeatherCatV1.00B22,2013-02-18 00:25:00,
2013-02-17 19:30:00,15.8,0.9,29.76,West,273,7.0,16.0,51,0.00,,,0.00,WeatherCatV1.00B22,2013-02-18 00:30:00,
2013-02-17 19:35:00,15.6,0.7,29.77,East,82,2.0,4.0,51,0.00,,,0.00,WeatherCatV1.00B22,2013-02-18 00:35:00,
2013-02-17 19:40:00,15.4,1.0,29.77,NE,36,2.0,3.0,52,0.00,,,0.00,WeatherCatV1.00B22,2013-02-18 00:40:00,
2013-02-17 19:45:00,15.1,1.1,29.77,North,5,1.0,6.0,53,0.00,,,0.00,WeatherCatV1.00B22,2013-02-18 00:45:00,
2013-02-17 19:50:00,14.8,1.2,29.77,NE,49,2.0,7.0,54,0.00,,,0.00,WeatherCatV1.00B22,2013-02-18 00:50:00,
2013-02-17 19:55:00,14.4,0.8,29.78,North,0,8.0,10.0,54,0.00,,,0.00,WeatherCatV1.00B22,2013-02-18 00:55:00,
2013-02-17 20:00:00,14.1,0.9,29.78,NW,305,4.0,6.0,55,0.00,,,0.00,WeatherCatV1.00B22,2013-02-18 01:00:00,
2013-02-17 20:05:00,13.8,1.0,29.78,NW,305,8.0,13.0,56,0.00,,,0.00,WeatherCatV1.00B22,2013-02-18 01:05:00,
2013-02-17 20:10:00,13.5,0.8,29.78,North,355,2.0,6.0,56,0.00,,,0.00,WeatherCatV1.00B22,2013-02-18 01:10:00,
2013-02-17 20:15:00,13.3,0.6,29.79,North,10,0.0,4.0,56,0.00,,,0.00,WeatherCatV1.00B22,2013-02-18 01:15:00,
2013-02-17 20:20:00,13.1,0.4,29.79,WNW,286,3.0,9.0,56,0.00,,,0.00,WeatherCatV1.00B22,2013-02-18 01:20:00,
2013-02-17 20:25:00,13.0,0.7,29.79,NW,313,3.0,9.0,57,0.00,,,0.00,WeatherCatV1.00B22,2013-02-18 01:25:00,
2013-02-17 20:30:00,12.8,0.5,29.80,NW,321,5.0,9.0,57,0.00,,,0.00,WeatherCatV1.00B22,2013-02-18 01:30:00,
2013-02-17 20:35:00,12.7,0.8,29.80,NNW,333,2.0,9.0,58,0.00,,,0.00,WeatherCatV1.00B22,2013-02-18 01:35:00,
2013-02-17 20:40:00,12.6,0.7,29.80,NNE,15,3.0,8.0,58,0.00,,,0.00,WeatherCatV1.00B22,2013-02-18 01:40:00,
2013-02-17 20:45:00,12.6,0.7,29.80,North,5,4.0,5.0,58,0.00,,,0.00,WeatherCatV1.00B22,2013-02-18 01:45:00,
2013-02-17 20:50:00,12.5,0.6,29.80,NNE,31,1.0,4.0,58,0.00,,,0.00,WeatherCatV1.00B22,2013-02-18 01:50:00,
2013-02-17 20:55:00,12.4,0.8,29.81,North,355,1.0,7.0,59,0.00,,,0.00,WeatherCatV1.00B22,2013-02-18 01:55:00,
2013-02-17 21:00:00,12.3,0.4,29.81,NNW,340,2.0,11.0,58,0.00,,,0.00,WeatherCatV1.00B22,2013-02-18 02:00:00,
2013-02-17 21:05:00,12.3,0.7,29.81,North,0,9.0,9.0,59,0.00,,,0.00,WeatherCatV1.00B22,2013-02-18 02:05:00,
2013-02-17 21:10:00,12.2,0.6,29.81,NE,46,3.0,8.0,59,0.00,,,0.00,WeatherCatV1.00B22,2013-02-18 02:10:00,
2013-02-17 21:15:00,12.1,0.6,29.81,WNW,291,4.0,9.0,59,0.00,,,0.00,WeatherCatV1.00B22,2013-02-18 02:15:00,
2013-02-17 21:20:00,12.0,0.5,29.82,North,355,2.0,8.0,59,0.00,,,0.00,WeatherCatV1.00B22,2013-02-18 02:20:00,
2013-02-17 21:25:00,12.0,0.8,29.82,South,179,0.0,8.0,60,0.00,,,0.00,WeatherCatV1.00B22,2013-02-18 02:25:00,
2013-02-17 21:30:00,11.9,0.7,29.82,WNW,292,2.0,6.0,60,0.00,,,0.00,WeatherCatV1.00B22,2013-02-18 02:30:00,
2013-02-17 21:35:00,11.8,0.6,29.82,NW,315,0.0,7.0,60,0.00,,,0.00,WeatherCatV1.00B22,2013-02-18 02:35:00,
2013-02-17 21:40:00,11.8,1.0,29.82,ESE,119,4.0,4.0,61,0.00,,,0.00,WeatherCatV1.00B22,2013-02-18 02:40:00,
2013-02-17 21:45:00,11.7,0.5,29.82,North,0,2.0,5.0,60,0.00,,,0.00,WeatherCatV1.00B22,2013-02-18 02:45:00,
2013-02-17 21:50:00,11.7,0.5,29.82,North,0,2.0,5.0,60,0.00,,,0.00,WeatherCatV1.00B22,2013-02-18 02:50:00,
2013-02-17 21:55:00,11.6,0.8,29.82,North,0,2.0,5.0,61,0.00,,,0.00,WeatherCatV1.00B22,2013-02-18 02:55:00,
2013-02-17 22:00:00,11.6,0.8,29.83,NNW,336,2.0,8.0,61,0.00,,,0.00,WeatherCatV1.00B22,2013-02-18 03:00:00,
2013-02-17 22:05:00,11.6,0.8,29.83,NW,319,3.0,8.0,61,0.00,,,0.00,WeatherCatV1.00B22,2013-02-18 03:05:00,
2013-02-17 22:10:00,11.5,0.7,29.83,NE,36,3.0,7.0,61,0.00,,,0.00,WeatherCatV1.00B22,2013-02-18 03:10:00,
2013-02-17 22:15:00,11.4,0.6,29.83,North,5,2.0,6.0,61,0.00,,,0.00,WeatherCatV1.00B22,2013-02-18 03:15:00,
2013-02-17 22:20:00,11.4,0.6,29.83,NNW,339,7.0,8.0,61,0.00,,,0.00,WeatherCatV1.00B22,2013-02-18 03:20:00,
2013-02-17 22:25:00,11.4,0.6,29.84,NE,35,2.0,8.0,61,0.00,,,0.00,WeatherCatV1.00B22,2013-02-18 03:25:00,
2013-02-17 22:30:00,11.4,0.9,29.84,NNW,348,2.0,5.0,62,0.00,,,0.00,WeatherCatV1.00B22,2013-02-18 03:30:00,
2013-02-17 22:35:00,11.4,0.9,29.84,NNW,342,2.0,6.0,62,0.00,,,0.00,WeatherCatV1.00B22,2013-02-18 03:35:00,
2013-02-17 22:40:00,11.3,0.5,29.84,North,5,3.0,5.0,61,0.00,,,0.00,WeatherCatV1.00B22,2013-02-18 03:40:00,
2013-02-17 22:45:00,11.3,0.9,29.85,North,0,4.0,4.0,62,0.00,,,0.00,WeatherCatV1.00B22,2013-02-18 03:45:00,
2013-02-17 22:50:00,11.3,0.5,29.85,NW,313,3.0,5.0,61,0.00,,,0.00,WeatherCatV1.00B22,2013-02-18 03:50:00,
2013-02-17 22:55:00,11.3,0.5,29.85,NNE,22,4.0,4.0,61,0.00,,,0.00,WeatherCatV1.00B22,2013-02-18 03:55:00,
2013-02-17 23:00:00,11.4,0.6,29.85,NE,42,2.0,5.0,61,0.00,,,0.00,WeatherCatV1.00B22,2013-02-18 04:00:00,
2013-02-17 23:05:00,11.3,0.9,29.85,North,5,3.0,7.0,62,0.00,,,0.00,WeatherCatV1.00B22,2013-02-18 04:05:00,
2013-02-17 23:10:00,11.3,0.5,29.85,North,5,1.0,8.0,61,0.00,,,0.00,WeatherCatV1.00B22,2013-02-18 04:10:00,
2013-02-17 23:15:00,11.2,0.4,29.86,North,355,3.0,8.0,61,0.00,,,0.00,WeatherCatV1.00B22,2013-02-18 04:15:00,
2013-02-17 23:20:00,11.2,0.4,29.86,WSW,250,1.0,5.0,61,0.00,,,0.00,WeatherCatV1.00B22,2013-02-18 04:20:00,
2013-02-17 23:25:00,11.2,0.4,29.86,NNW,348,1.0,7.0,61,0.00,,,0.00,WeatherCatV1.00B22,2013-02-18 04:25:00,
2013-02-17 23:30:00,11.2,0.4,29.87,NNW,329,2.0,3.0,61,0.00,,,0.00,WeatherCatV1.00B22,2013-02-18 04:30:00,
2013-02-17 23:35:00,11.2,0.4,29.87,NW,315,2.0,7.0,61,0.00,,,0.00,WeatherCatV1.00B22,2013-02-18 04:35:00,
2013-02-17 23:40:00,11.2,0.1,29.87,NNW,335,1.0,3.0,60,0.00,,,0.00,WeatherCatV1.00B22,2013-02-18 04:40:00,
2013-02-17 23:45:00,11.2,0.4,29.88,North,0,3.0,6.0,61,0.00,,,0.00,WeatherCatV1.00B22,2013-02-18 04:45:00,
2013-02-17 23:50:00,11.1,0.3,29.88,NNW,331,3.0,6.0,61,0.00,,,0.00,WeatherCatV1.00B22,2013-02-18 04:50:00,
2013-02-17 23:55:00,11.0,0.2,29.88,NNW,333,3.0,8.0,61,0.00,,,0.00,WeatherCatV1.00B22,2013-02-18 04:55:00,